ACA1411 MMUN-CYHZ

Flight info

Callsign ACA1411
Flight time N/A
Altitude 37000
Route ROTGI2A ROTGI UM219 MYDIA M219 KNOST Q109 YURCK Q97 SAWED Q108 ZJAAY Q167 RIFLE Q430 ACK DCT TUSKY PEGGY5
Aircraft B38M/M-SDE1FGHILORVWXY/HB1

Departure

Time 2026-05-01 11:08
Airport Cancún International Airport (MMUN)

Arrival

Time N/A
Airport Halifax / Stanfield International Airport (CYHZ)
Time Latitude Longitude Altitude Speed Heading
2026-05-01 10:31 21.03921 -86.87690 31 ft 0 kts 45°
2026-05-01 11:00 21.03919 -86.87693 31 ft 3 kts 42°
2026-05-01 11:00 21.03902 -86.87706 31 ft 4 kts 29°
2026-05-01 11:00 21.03877 -86.87714 31 ft 4 kts 358°
2026-05-01 11:00 21.03855 -86.87705 31 ft 4 kts 310°
2026-05-01 11:01 21.03852 -86.87701 31 ft 2 kts 305°
2026-05-01 11:04 21.03852 -86.87702 31 ft 1 kts 305°
2026-05-01 11:04 21.03859 -86.87712 31 ft 3 kts 304°
2026-05-01 11:04 21.03877 -86.87740 31 ft 6 kts 304°
2026-05-01 11:04 21.03910 -86.87794 31 ft 12 kts 303°
2026-05-01 11:05 21.03969 -86.87891 30 ft 19 kts 306°
2026-05-01 11:05 21.04059 -86.88029 31 ft 26 kts 304°
2026-05-01 11:05 21.04168 -86.88201 31 ft 30 kts 304°
2026-05-01 11:05 21.04276 -86.88370 31 ft 28 kts 303°
2026-05-01 11:06 21.04392 -86.88558 32 ft 33 kts 303°
2026-05-01 11:06 21.04500 -86.88732 31 ft 24 kts 304°
2026-05-01 11:06 21.04603 -86.88898 31 ft 26 kts 303°
2026-05-01 11:07 21.04507 -86.89043 30 ft 17 kts 132°
2026-05-01 11:07 21.04481 -86.89005 30 ft 6 kts 123°
2026-05-01 11:07 21.04324 -86.88757 32 ft 80 kts 124°
2026-05-01 11:07 21.03869 -86.88032 30 ft 152 kts 123°
2026-05-01 11:08 21.03174 -86.86913 277 ft 192 kts 123°
2026-05-01 11:08 21.02438 -86.85692 1126 ft 194 kts 121°
2026-05-01 11:08 21.01302 -86.83208 2540 ft 196 kts 91°
2026-05-01 11:09 21.01518 -86.81737 2686 ft 209 kts 72°
2026-05-01 11:09 21.01945 -86.80187 2801 ft 226 kts 73°
2026-05-01 11:09 21.02481 -86.78567 3002 ft 236 kts 60°
2026-05-01 11:10 21.05321 -86.76838 4478 ft 251 kts
2026-05-01 11:10 21.07099 -86.76673 5145 ft 264 kts
2026-05-01 11:10 21.08981 -86.76456 5726 ft 278 kts
2026-05-01 11:10 21.10932 -86.76221 6488 ft 284 kts
2026-05-01 11:11 21.12911 -86.75980 7297 ft 288 kts
2026-05-01 11:11 21.14916 -86.75735 8079 ft 291 kts
2026-05-01 11:11 21.16943 -86.75486 8818 ft 295 kts
2026-05-01 11:11 21.18995 -86.75234 9567 ft 298 kts
2026-05-01 11:12 21.21067 -86.74978 10275 ft 303 kts
2026-05-01 11:12 21.23221 -86.74704 10601 ft 322 kts
2026-05-01 11:12 21.25506 -86.74410 10923 ft 338 kts
2026-05-01 11:12 21.27883 -86.74107 11323 ft 350 kts
2026-05-01 11:13 21.30333 -86.73797 11812 ft 358 kts
2026-05-01 11:13 21.32812 -86.73489 12471 ft 360 kts
2026-05-01 11:13 21.35305 -86.73183 13113 ft 362 kts
2026-05-01 11:13 21.37789 -86.72878 13715 ft 365 kts
2026-05-01 11:14 21.40324 -86.72567 14322 ft 368 kts
2026-05-01 11:14 21.42879 -86.72254 14925 ft 371 kts
2026-05-01 11:14 21.45450 -86.71940 15526 ft 374 kts
2026-05-01 11:14 21.48043 -86.71622 16081 ft 377 kts
2026-05-01 11:15 21.50657 -86.71302 16625 ft 379 kts
2026-05-01 11:15 21.53288 -86.70980 17161 ft 382 kts
2026-05-01 11:15 21.55937 -86.70656 17671 ft 384 kts
2026-05-01 11:15 21.58604 -86.70329 18151 ft 387 kts
2026-05-01 11:16 21.61287 -86.70000 18654 ft 389 kts
2026-05-01 11:16 21.63987 -86.69669 19100 ft 392 kts
2026-05-01 11:16 21.66703 -86.69336 19554 ft 394 kts
2026-05-01 11:16 21.69439 -86.69002 19995 ft 397 kts
2026-05-01 11:17 21.72189 -86.68664 20428 ft 399 kts
2026-05-01 11:17 21.74956 -86.68325 20852 ft 401 kts
2026-05-01 11:17 21.77738 -86.67984 21260 ft 404 kts
2026-05-01 11:17 21.80534 -86.67641 21660 ft 406 kts
2026-05-01 11:18 21.83348 -86.67295 22036 ft 408 kts
2026-05-01 11:18 21.86137 -86.66696 22415 ft 410 kts 12°
2026-05-01 11:18 21.88932 -86.66021 22772 ft 413 kts 11°
2026-05-01 11:18 21.91745 -86.65362 23126 ft 414 kts 11°
2026-05-01 11:19 21.94573 -86.64711 23455 ft 417 kts 11°
2026-05-01 11:19 21.97417 -86.64061 23812 ft 419 kts 11°
2026-05-01 11:19 22.00269 -86.63410 24130 ft 421 kts 10°
2026-05-01 11:19 22.03138 -86.62756 24462 ft 422 kts 10°
2026-05-01 11:20 22.06026 -86.62098 24766 ft 425 kts 10°
2026-05-01 11:20 22.08920 -86.61438 25095 ft 426 kts 10°
2026-05-01 11:20 22.11828 -86.60774 25413 ft 428 kts 10°
2026-05-01 11:20 22.14744 -86.60108 25713 ft 430 kts 10°
2026-05-01 11:21 22.17635 -86.59447 26014 ft 431 kts 10°
2026-05-01 11:21 22.20578 -86.58775 26303 ft 433 kts 10°
2026-05-01 11:21 22.23529 -86.58100 26615 ft 435 kts 10°
2026-05-01 11:21 22.26496 -86.57422 26904 ft 436 kts 10°
2026-05-01 11:22 22.29467 -86.56742 27205 ft 438 kts 10°
2026-05-01 11:22 22.32458 -86.56057 27475 ft 440 kts 10°
2026-05-01 11:22 22.35452 -86.55372 27763 ft 441 kts 10°
2026-05-01 11:22 22.38463 -86.54681 28051 ft 443 kts 10°
2026-05-01 11:23 22.41483 -86.53981 28314 ft 445 kts 10°
2026-05-01 11:23 22.44513 -86.53278 28587 ft 446 kts 10°
2026-05-01 11:23 22.47557 -86.52573 28838 ft 448 kts 10°
2026-05-01 11:23 22.50606 -86.51865 29108 ft 449 kts 10°
2026-05-01 11:24 22.53669 -86.51154 29371 ft 450 kts 10°
2026-05-01 11:24 22.56726 -86.50445 29753 ft 448 kts 10°
2026-05-01 11:24 22.62810 -86.49031 30504 ft 446 kts 10°
2026-05-01 11:25 22.65834 -86.48328 30858 ft 445 kts
2026-05-01 11:25 22.71891 -86.46919 31489 ft 445 kts 10°
2026-05-01 11:25 22.74915 -86.46216 31823 ft 444 kts 10°
2026-05-01 11:26 22.77936 -86.45512 32161 ft 443 kts
2026-05-01 11:26 22.83959 -86.44107 32776 ft 442 kts
2026-05-01 11:26 22.86965 -86.43405 33069 ft 442 kts
2026-05-01 11:27 22.89969 -86.42703 33355 ft 442 kts
2026-05-01 11:27 22.92968 -86.42003 33613 ft 442 kts
2026-05-01 11:27 22.95976 -86.41300 33878 ft 441 kts
2026-05-01 11:27 22.98976 -86.40599 34185 ft 440 kts
2026-05-01 11:28 23.01923 -86.39909 34466 ft 439 kts
2026-05-01 11:28 23.04909 -86.39211 34759 ft 438 kts
2026-05-01 11:28 23.07885 -86.38514 35049 ft 437 kts
2026-05-01 11:29 23.13810 -86.37125 35602 ft 434 kts
2026-05-01 11:29 23.16756 -86.36434 35845 ft 433 kts
2026-05-01 11:29 23.22638 -86.35055 36296 ft 431 kts
2026-05-01 11:30 23.25564 -86.34368 36492 ft 431 kts
2026-05-01 11:30 23.28498 -86.33679 36692 ft 430 kts
2026-05-01 11:30 23.31409 -86.32995 36956 ft 427 kts
2026-05-01 11:31 23.37168 -86.31640 36994 ft 419 kts
2026-05-01 11:31 23.42869 -86.30299 36983 ft 420 kts
2026-05-01 11:32 23.48584 -86.28953 36984 ft 421 kts
2026-05-01 11:32 23.54313 -86.27603 36980 ft 421 kts
2026-05-01 11:33 23.60047 -86.26250 36982 ft 422 kts
2026-05-01 11:33 23.65787 -86.24895 36990 ft 423 kts
2026-05-01 11:34 23.71541 -86.23535 36990 ft 423 kts
2026-05-01 11:34 23.77288 -86.22175 36990 ft 423 kts
2026-05-01 11:35 23.83045 -86.20812 36990 ft 423 kts
2026-05-01 11:35 23.88764 -86.19457 36991 ft 423 kts
2026-05-01 11:36 23.94521 -86.18091 36990 ft 424 kts
2026-05-01 11:36 24.00296 -86.16720 36990 ft 425 kts
2026-05-01 11:37 24.05878 -86.14602 36999 ft 431 kts 26°
2026-05-01 11:37 24.11139 -86.11419 36986 ft 434 kts 24°
2026-05-01 11:38 24.16413 -86.08184 36990 ft 434 kts 25°
2026-05-01 11:38 24.21675 -86.04928 36991 ft 434 kts 25°
2026-05-01 11:39 24.26929 -86.01670 36990 ft 434 kts 25°
2026-05-01 11:39 24.32184 -85.98408 36991 ft 434 kts 25°
2026-05-01 11:40 24.37438 -85.95144 36991 ft 434 kts 25°
2026-05-01 11:40 24.42692 -85.91877 36990 ft 434 kts 25°
2026-05-01 11:41 24.47940 -85.88610 36990 ft 434 kts 25°
2026-05-01 11:41 24.53159 -85.85358 36991 ft 434 kts 25°
2026-05-01 11:42 24.58412 -85.82082 36990 ft 434 kts 25°
2026-05-01 11:42 24.63663 -85.78804 36990 ft 434 kts 25°
2026-05-01 11:43 24.68904 -85.75528 36989 ft 433 kts 25°
2026-05-01 11:43 24.73266 -85.72800 36991 ft 434 kts 25°
2026-05-01 11:44 24.81120 -85.67882 36991 ft 433 kts 25°
2026-05-01 11:44 24.86355 -85.64600 36991 ft 433 kts 25°
2026-05-01 11:45 24.91591 -85.61314 36989 ft 433 kts 25°
2026-05-01 11:45 24.96824 -85.58027 36990 ft 433 kts 25°
2026-05-01 11:46 25.02052 -85.54740 36989 ft 433 kts 25°
2026-05-01 11:46 25.07276 -85.51452 36979 ft 432 kts 25°
2026-05-01 11:47 25.12502 -85.48159 36979 ft 433 kts 25°
2026-05-01 11:47 25.17724 -85.44865 36982 ft 432 kts 25°
2026-05-01 11:48 25.22955 -85.41563 36981 ft 433 kts 25°
2026-05-01 11:48 25.28173 -85.38265 36982 ft 432 kts 25°
2026-05-01 11:49 25.33460 -85.35134 36947 ft 426 kts 14°
2026-05-01 11:49 25.36288 -85.34486 36991 ft 417 kts
2026-05-01 11:49 25.39217 -85.34088 36963 ft 420 kts
2026-05-01 11:50 25.44998 -85.33402 36985 ft 421 kts
2026-05-01 11:50 25.50826 -85.32784 36983 ft 420 kts
2026-05-01 11:51 25.56645 -85.32185 36981 ft 420 kts
2026-05-01 11:51 25.62468 -85.31587 36983 ft 420 kts
2026-05-01 11:52 25.68281 -85.30989 36980 ft 419 kts
2026-05-01 11:52 25.74093 -85.30391 36981 ft 420 kts
2026-05-01 11:53 25.79913 -85.29791 36979 ft 420 kts
2026-05-01 11:53 25.85727 -85.29192 36979 ft 420 kts
2026-05-01 11:54 25.91541 -85.28592 36984 ft 420 kts
2026-05-01 11:54 25.97359 -85.27991 36979 ft 420 kts
2026-05-01 11:55 26.03175 -85.27390 36983 ft 420 kts
2026-05-01 11:55 26.08987 -85.26788 36983 ft 419 kts
2026-05-01 11:56 26.14799 -85.26186 36981 ft 419 kts
2026-05-01 11:56 26.20620 -85.25583 36985 ft 420 kts
2026-05-01 11:57 26.26434 -85.24979 36980 ft 420 kts
2026-05-01 11:57 26.32258 -85.24375 36983 ft 420 kts
2026-05-01 11:58 26.38074 -85.23670 36957 ft 424 kts 11°
2026-05-01 11:59 26.46491 -85.20403 36974 ft 428 kts 15°
2026-05-01 11:59 26.52109 -85.18141 36980 ft 430 kts 15°
2026-05-01 12:00 26.60506 -85.14732 36983 ft 430 kts 15°
2026-05-01 12:01 26.68948 -85.11298 36972 ft 430 kts 15°
2026-05-01 12:01 26.74576 -85.09006 36973 ft 431 kts 15°
2026-05-01 12:02 26.80209 -85.06710 36970 ft 431 kts 15°
2026-05-01 12:02 26.85847 -85.04409 36970 ft 431 kts 15°
2026-05-01 12:03 26.91486 -85.02104 36971 ft 432 kts 15°
2026-05-01 12:03 26.97130 -84.99796 36974 ft 432 kts 15°
2026-05-01 12:04 27.02783 -84.97482 36984 ft 433 kts 15°
2026-05-01 12:04 27.08435 -84.95165 36982 ft 432 kts 15°
2026-05-01 12:05 27.14086 -84.92846 36982 ft 433 kts 15°
2026-05-01 12:05 27.22568 -84.89362 36972 ft 432 kts 15°
2026-05-01 12:06 27.28223 -84.87035 36973 ft 433 kts 15°
2026-05-01 12:06 27.33875 -84.84707 36969 ft 433 kts 15°
2026-05-01 12:07 27.39527 -84.82376 36972 ft 433 kts 14°
2026-05-01 12:07 27.45178 -84.80009 36965 ft 436 kts 19°
2026-05-01 12:08 27.47781 -84.78203 36948 ft 445 kts 35°
2026-05-01 12:08 27.49898 -84.75623 36978 ft 457 kts 50°
2026-05-01 12:08 27.52777 -84.69096 36974 ft 470 kts 60°
2026-05-01 12:09 27.55378 -84.62386 36970 ft 470 kts 61°
2026-05-01 12:09 27.57947 -84.55606 36973 ft 471 kts 61°
2026-05-01 12:10 27.61788 -84.45415 36971 ft 471 kts 61°
2026-05-01 12:11 27.65624 -84.35210 36974 ft 471 kts 61°
2026-05-01 12:11 27.68179 -84.28402 36979 ft 472 kts 61°
2026-05-01 12:12 27.70731 -84.21582 36981 ft 472 kts 61°
2026-05-01 12:12 27.73286 -84.14749 36979 ft 472 kts 61°
2026-05-01 12:13 27.75833 -84.07920 36981 ft 472 kts 61°
2026-05-01 12:13 27.78380 -84.01081 36978 ft 472 kts 61°
2026-05-01 12:14 27.80923 -83.94241 36973 ft 473 kts 61°
2026-05-01 12:14 27.83468 -83.87384 36970 ft 473 kts 62°
2026-05-01 12:15 27.86009 -83.80524 36971 ft 473 kts 62°
2026-05-01 12:15 27.88542 -83.73672 36973 ft 472 kts 62°
2026-05-01 12:16 27.91071 -83.66820 36970 ft 472 kts 62°
2026-05-01 12:16 27.93596 -83.59966 36973 ft 472 kts 62°
2026-05-01 12:17 27.96118 -83.53109 36979 ft 471 kts 62°
2026-05-01 12:17 27.98952 -83.46504 36941 ft 457 kts 45°
2026-05-01 12:18 28.01127 -83.43982 36985 ft 443 kts 31°
2026-05-01 12:18 28.03689 -83.42117 36952 ft 433 kts 17°
2026-05-01 12:18 28.09299 -83.39889 36974 ft 427 kts 10°
2026-05-01 12:19 28.14981 -83.38099 36981 ft 426 kts
2026-05-01 12:19 28.20714 -83.36411 36984 ft 425 kts
2026-05-01 12:20 28.26480 -83.34746 36985 ft 425 kts
2026-05-01 12:20 28.32211 -83.33093 36979 ft 424 kts
2026-05-01 12:21 28.37890 -83.31455 36983 ft 424 kts
2026-05-01 12:21 28.43603 -83.29804 36978 ft 424 kts
2026-05-01 12:22 28.49311 -83.28153 36978 ft 422 kts
2026-05-01 12:22 28.55007 -83.26505 36985 ft 422 kts
2026-05-01 12:23 28.60697 -83.24855 36989 ft 422 kts
2026-05-01 12:23 28.66390 -83.23203 36987 ft 422 kts
2026-05-01 12:24 28.72076 -83.21552 36990 ft 421 kts
2026-05-01 12:24 28.77753 -83.19901 36990 ft 421 kts
2026-05-01 12:25 28.86262 -83.17423 36990 ft 420 kts
2026-05-01 12:26 28.91934 -83.15769 36982 ft 420 kts
2026-05-01 12:26 29.00407 -83.13294 36984 ft 419 kts
2026-05-01 12:27 29.08887 -83.10813 36982 ft 419 kts
2026-05-01 12:28 29.17330 -83.08340 36978 ft 419 kts
2026-05-01 12:29 29.25790 -83.05857 36978 ft 418 kts
2026-05-01 12:29 29.34229 -83.03375 36985 ft 417 kts
2026-05-01 12:30 29.42659 -83.00892 36981 ft 417 kts
2026-05-01 12:31 29.48276 -82.99235 36979 ft 416 kts
2026-05-01 12:31 29.53886 -82.97579 36978 ft 417 kts
2026-05-01 12:32 29.58561 -82.96197 36979 ft 417 kts
2026-05-01 12:32 29.66978 -82.93707 36984 ft 416 kts
2026-05-01 12:33 29.72589 -82.92044 36983 ft 416 kts
2026-05-01 12:33 29.78195 -82.90381 36964 ft 415 kts
2026-05-01 12:34 29.83792 -82.88719 36962 ft 415 kts
2026-05-01 12:34 29.89384 -82.87056 36962 ft 415 kts
2026-05-01 12:35 29.94982 -82.85390 36960 ft 416 kts
2026-05-01 12:35 30.00589 -82.83718 36957 ft 416 kts
2026-05-01 12:36 30.06198 -82.82046 36963 ft 416 kts
2026-05-01 12:36 30.11782 -82.80378 36968 ft 415 kts
2026-05-01 12:37 30.17366 -82.78706 36951 ft 414 kts
2026-05-01 12:37 30.22906 -82.77047 36954 ft 415 kts
2026-05-01 12:38 30.28485 -82.75375 36953 ft 414 kts
2026-05-01 12:38 30.34062 -82.73702 36953 ft 414 kts
2026-05-01 12:39 30.39650 -82.72022 36948 ft 415 kts
2026-05-01 12:39 30.45236 -82.70342 36937 ft 414 kts
2026-05-01 12:40 30.50822 -82.68707 36929 ft 409 kts 360°
2026-05-01 12:40 30.56421 -82.67568 36912 ft 409 kts
2026-05-01 12:41 30.62026 -82.66374 36939 ft 410 kts
2026-05-01 12:41 30.67632 -82.65166 36933 ft 409 kts
2026-05-01 12:42 30.73249 -82.63955 36931 ft 410 kts
2026-05-01 12:42 30.78861 -82.62742 36936 ft 410 kts
2026-05-01 12:43 30.84474 -82.61528 36947 ft 410 kts 360°
2026-05-01 12:43 30.90098 -82.60310 36933 ft 411 kts 360°
2026-05-01 12:44 30.95720 -82.59091 36933 ft 411 kts 360°
2026-05-01 12:45 31.06931 -82.56652 36919 ft 413 kts
2026-05-01 12:45 31.09704 -82.55552 36912 ft 433 kts 16°
2026-05-01 12:45 31.12379 -82.53909 36913 ft 433 kts 14°
2026-05-01 12:46 31.17783 -82.50745 36934 ft 437 kts 15°
2026-05-01 12:46 31.23192 -82.47482 36946 ft 438 kts 15°
2026-05-01 12:47 31.28594 -82.44196 36934 ft 436 kts 15°
2026-05-01 12:47 31.33992 -82.40915 36948 ft 438 kts 15°
2026-05-01 12:48 31.39401 -82.37619 36939 ft 438 kts 15°
2026-05-01 12:48 31.44823 -82.34311 36932 ft 441 kts 15°
2026-05-01 12:49 31.50257 -82.30983 36929 ft 440 kts 15°
2026-05-01 12:49 31.55712 -82.27653 36924 ft 443 kts 15°
2026-05-01 12:50 31.61162 -82.24311 36917 ft 442 kts 15°
2026-05-01 12:50 31.66609 -82.20969 36935 ft 442 kts 15°
2026-05-01 12:51 31.72062 -82.17620 36914 ft 443 kts 15°
2026-05-01 12:52 31.80254 -82.12577 36931 ft 443 kts 15°
2026-05-01 12:52 31.88446 -82.07525 36921 ft 443 kts 15°
2026-05-01 12:53 31.96637 -82.02464 36919 ft 443 kts 15°
2026-05-01 12:54 32.02098 -81.99084 36921 ft 443 kts 15°
2026-05-01 12:54 32.10283 -81.94011 36910 ft 443 kts 15°
2026-05-01 12:55 32.15585 -81.90143 36878 ft 466 kts 31°
2026-05-01 12:55 32.17960 -81.87546 36930 ft 466 kts 29°
2026-05-01 12:56 32.22787 -81.82422 36946 ft 468 kts 30°
2026-05-01 12:56 32.27618 -81.77201 36920 ft 470 kts 30°
2026-05-01 12:57 32.32441 -81.71976 36896 ft 471 kts 30°
2026-05-01 12:57 32.39654 -81.64141 36906 ft 472 kts 31°
2026-05-01 12:58 32.44510 -81.58861 36924 ft 475 kts 31°
2026-05-01 12:59 32.51781 -81.50936 36908 ft 475 kts 31°
2026-05-01 12:59 32.59089 -81.42951 36908 ft 478 kts 31°
2026-05-01 13:00 32.66412 -81.34932 36922 ft 478 kts 31°
2026-05-01 13:01 32.73743 -81.26884 36913 ft 479 kts 31°
2026-05-01 13:02 32.81106 -81.18783 36910 ft 482 kts 31°
2026-05-01 13:07 33.33127 -80.60990 36902 ft 493 kts 32°
2026-05-01 13:07 33.35629 -80.58185 36900 ft 493 kts 32°
2026-05-01 13:08 33.40636 -80.52568 36906 ft 494 kts 32°
2026-05-01 13:08 33.45651 -80.46924 36903 ft 497 kts 34°
2026-05-01 13:08 33.47895 -80.43689 36855 ft 516 kts 50°
2026-05-01 13:09 33.49647 -80.39909 36959 ft 520 kts 53°
2026-05-01 13:09 33.53140 -80.32256 36902 ft 525 kts 53°
2026-05-01 13:10 33.56611 -80.24511 36901 ft 527 kts 54°
2026-05-01 13:10 33.60079 -80.16747 36904 ft 528 kts 54°